User: anonymous   Login
Location: Okie-Tex Star Party
(36.8978°N, 102.9520°W)
Time: 19:17:43
(UTC-05:00)
Language:

Hamsat - Orbit

View from above orbital plane
View from above orbital plane
View from above satellite
View from above satellite

Ground track
Ground track

The orbit data is extracted from the following two-line orbital elements,

1 28650U 05017B   17080.90726813 +.00000342 +00000-0 +42278-4 0  9992
2 28650 097.6423 058.2531 0024972 061.4375 298.9351 14.88592079643113
Epoch (UTC): 21 March 2017 21:46:27
Eccentricity: 0.0024972
inclination: 97.6423°
perigee height: 585 km
apogee height: 620 km
right ascension of ascending node: 58.2531°
argument of perigee: 61.4375°
revolutions per day: 14.88592079
mean anomaly at epoch: 298.9351°
orbit number at epoch: 64311

The dashed part of the orbit path shows where the satellite is in the earth's shadow,  

DLR